Date String (YYYY-MM-DD hh:mm:ss) UTC,Instrument flags,Ambient pressure (hPa),Sample flow (lpm),Bypass flow (lpm),Sample temperature (°C),Ambient temperature (°C),ASC tube jacket temperature (°C),LED temperature (°C),Box temperature (°C),Sample RH (%),Span deviation,Mass concentration (μg/m³),Mass concentration (μg/m³),Mass concentration (μg/m³)
DateTimeUTC,F1_M11,P_M11,Q1_M11,Q2_M11,T1_M11,T2_M11,T3_M11,T4_M11,T5_M11,U1_M11,ZSPAN_M11,X2_M11,X0_M11,X1_M11
2023-05-19 12:00:00,,0836.3,4.99,0.00,27.6,25.8,00.0,35.9,29.2,22.1,0003.3,0102.60,0129.51,0099.10
2023-05-19 12:01:00,,0836.2,5.00,0.00,27.6,25.8,00.0,35.9,29.2,22.1,0003.3,0102.74,0129.65,0099.27
2023-05-19 12:02:00,,0836.2,4.98,0.00,27.6,25.8,00.0,35.9,29.2,22.2,0003.3,0102.76,0129.66,0099.33
2023-05-19 12:03:00,,0836.2,5.01,0.00,27.6,25.8,00.0,35.9,29.2,22.3,0003.3,0102.77,0129.53,0099.42
2023-05-19 12:04:00,,0836.3,5.00,0.00,27.6,25.8,00.0,35.9,29.2,22.1,0003.3,0102.88,0129.67,0099.53
2023-05-19 12:05:00,,0836.3,5.01,0.00,27.6,25.8,00.0,35.9,29.2,22.0,0003.3,0103.21,0130.27,0099.73
2023-05-19 12:06:00,,0836.4,4.99,0.00,27.6,25.8,00.0,35.9,29.2,22.1,0003.3,0103.39,0130.41,0099.90
2023-05-19 12:07:00,,0836.4,5.01,0.00,27.5,25.8,00.0,35.9,29.2,22.2,0003.3,0103.66,0130.75,0100.11
2023-05-19 12:08:00,,0836.4,5.00,0.00,27.5,25.8,00.0,35.9,29.2,22.7,0003.4,0103.76,0131.23,0100.26
2023-05-19 12:09:00,,0836.3,5.01,0.00,27.5,25.8,00.0,35.9,29.2,22.3,0003.3,0103.87,0132.11,0100.35
2023-05-19 12:10:00,,0836.4,5.01,0.00,27.5,25.8,00.0,35.9,29.2,22.3,0003.4,0104.15,0132.37,0100.61
2023-05-19 12:11:00,,0836.5,5.00,0.00,27.5,25.8,00.0,35.9,29.2,22.4,0003.4,0104.23,0132.04,0100.75
2023-05-19 12:12:00,,0836.5,5.00,0.00,27.5,25.8,00.0,35.9,29.2,22.5,0003.5,0104.24,0132.11,0100.77
2023-05-19 12:13:00,,0836.5,4.99,0.00,27.5,25.8,00.0,35.9,29.2,22.6,0003.5,0104.37,0132.39,0100.91
2023-05-19 12:14:00,,0836.6,5.00,0.00,27.5,25.8,00.0,35.9,29.2,23.2,0003.5,0104.53,0132.89,0101.02
2023-05-19 12:15:00,,0836.6,5.01,0.00,27.5,25.8,00.0,35.9,29.2,24.6,0003.5,0104.36,0132.58,0100.88
2023-05-19 12:16:00,,0836.6,5.01,0.00,27.5,25.9,00.0,35.9,29.2,25.9,0003.5,0103.45,0131.39,0100.11
2023-05-19 12:17:00,,0836.6,5.01,0.00,27.5,25.9,00.0,35.9,29.2,26.6,0003.5,0102.32,0130.25,0098.91
2023-05-19 12:18:00,,0836.6,5.00,0.00,27.5,25.9,00.0,35.9,29.2,26.6,0003.5,0101.03,0128.61,0097.74
2023-05-19 12:19:00,,0836.6,5.00,0.00,27.6,25.9,00.0,35.9,29.2,25.2,0003.5,0100.33,0127.32,0097.08
2023-05-19 12:20:00,,0836.6,4.99,0.00,27.6,25.9,00.0,35.9,29.2,23.6,0003.5,0100.24,0126.48,0097.02
2023-05-19 12:21:00,,0836.6,5.00,0.00,27.6,25.9,00.0,35.9,29.2,23.6,0003.5,0100.00,0126.11,0096.82
2023-05-19 12:22:00,,0836.6,5.00,0.00,27.6,25.9,00.0,35.9,29.2,25.0,0003.5,0099.11,0125.04,0096.01
2023-05-19 12:23:00,,0836.6,4.99,0.00,27.6,25.9,00.0,35.9,29.2,26.1,0003.4,0097.76,0123.23,0094.73
2023-05-19 12:24:00,,0836.7,5.00,0.00,27.5,25.9,00.0,35.9,29.2,26.6,0003.5,0096.28,0121.13,0093.33
2023-05-19 12:25:00,,0836.7,5.00,0.00,27.6,25.9,00.0,35.9,29.2,27.1,0003.5,0094.76,0119.15,0091.83
2023-05-19 12:26:00,,0836.7,5.00,0.00,27.6,25.9,00.0,35.9,29.2,27.3,0003.4,0093.25,0117.44,0090.34
2023-05-19 12:27:00,,0836.7,5.00,0.00,27.6,26.0,00.0,35.9,29.2,27.2,0003.4,0092.32,0116.30,0089.37
2023-05-19 12:28:00,,0836.7,5.00,0.00,27.6,26.0,00.0,35.9,29.2,27.0,0003.4,0091.84,0115.94,0088.89
2023-05-19 12:29:00,,0836.8,5.00,0.00,27.6,26.0,00.0,35.9,29.2,27.0,0003.4,0091.31,0115.68,0088.39
2023-05-19 12:30:00,,0836.8,5.00,0.00,27.6,26.0,00.0,35.9,29.2,26.8,0003.4,0090.45,0114.85,0087.51
2023-05-19 12:31:00,,0836.8,5.00,0.00,27.6,26.0,00.0,35.9,29.2,26.6,0003.3,0089.00,0113.20,0086.04
2023-05-19 12:32:00,,0836.8,5.00,0.00,27.6,26.0,00.0,35.9,29.2,26.3,0003.3,0087.69,0111.83,0084.70
2023-05-19 12:33:00,,0836.8,5.00,0.00,27.6,26.0,00.0,35.9,29.2,26.4,0003.4,0087.00,0111.26,0083.95
2023-05-19 12:34:00,,0836.8,5.00,0.00,27.6,26.0,00.0,35.9,29.2,26.3,0003.4,0086.70,0111.37,0083.61
2023-05-19 12:35:00,,0836.8,5.00,0.00,27.6,26.0,00.0,35.9,29.2,26.5,0003.4,0086.60,0111.50,0083.50
2023-05-19 12:36:00,,0836.8,5.00,0.00,27.6,26.0,00.0,35.9,29.2,26.7,0003.4,0086.63,0112.18,0083.50
2023-05-19 12:37:00,,0836.8,5.00,0.00,27.6,26.0,00.0,35.9,29.2,26.7,0003.5,0086.75,0112.48,0083.62
2023-05-19 12:38:00,,0836.8,5.00,0.00,27.6,26.0,00.0,35.9,29.3,26.9,0003.5,0086.92,0112.94,0083.75
2023-05-19 12:39:00,,0836.8,5.00,0.00,27.6,26.0,00.0,35.9,29.3,26.8,0003.6,0086.98,0112.61,0083.87
2023-05-19 12:40:00,,0836.8,5.00,0.00,27.6,26.0,00.0,35.9,29.3,26.3,0003.6,0087.17,0112.61,0084.08
2023-05-19 12:41:00,,0836.8,5.00,0.00,27.6,26.0,00.0,35.9,29.3,26.0,0003.6,0087.32,0112.63,0084.28
2023-05-19 12:42:00,,0836.8,5.01,0.00,27.6,26.0,00.0,35.9,29.3,26.1,0003.7,0087.39,0113.07,0084.44
2023-05-19 12:43:00,,0836.9,5.01,0.00,27.6,26.0,00.0,35.9,29.3,25.8,0003.7,0087.34,0113.11,0084.43
2023-05-19 12:44:00,,0836.9,5.00,0.00,27.6,26.0,00.0,35.9,29.3,25.6,0003.6,0087.44,0113.20,0084.48
2023-05-19 12:45:00,,0837.0,5.01,0.00,27.6,26.0,00.0,35.9,29.3,25.7,0003.6,0087.55,0112.97,0084.61
2023-05-19 12:46:00,,0837.0,5.01,0.00,27.6,26.0,00.0,35.9,29.3,25.5,0003.6,0087.66,0112.73,0084.70
2023-05-19 12:47:00,,0837.0,4.98,0.00,27.6,26.0,00.0,35.9,29.3,25.4,0003.7,0087.79,0112.49,0084.83
2023-05-19 12:48:00,,0837.0,5.00,0.00,27.6,26.0,00.0,35.9,29.3,25.3,0003.7,0087.86,0112.33,0084.94
2023-05-19 12:49:00,,0837.0,5.01,0.00,27.6,26.0,00.0,35.9,29.3,25.3,0003.6,0087.89,0112.32,0085.06
2023-05-19 12:50:00,,0836.9,5.01,0.00,27.6,26.0,00.0,36.0,29.3,25.6,0003.6,0087.98,0113.00,0085.18
2023-05-19 12:51:00,,0836.9,5.01,0.00,27.6,26.0,00.0,36.0,29.3,25.4,0003.6,0088.10,0112.99,0085.26
2023-05-19 12:52:00,,0836.9,4.98,0.00,27.6,26.0,00.0,36.0,29.3,25.6,0003.6,0088.08,0112.74,0085.24
2023-05-19 12:53:00,,0836.9,5.00,0.00,27.6,26.1,00.0,36.0,29.3,25.3,0003.7,0088.08,0112.55,0085.21
2023-05-19 12:54:00,,0837.0,5.00,0.00,27.6,26.1,00.0,36.0,29.3,25.2,0003.7,0088.12,0112.12,0085.27
2023-05-19 12:55:00,,0837.0,5.00,0.00,27.6,26.1,00.0,36.0,29.3,25.3,0003.8,0088.14,0111.99,0085.30
2023-05-19 12:56:00,,0837.0,5.00,0.00,27.7,26.1,00.0,36.0,29.3,25.3,0003.7,0088.13,0112.40,0085.29
2023-05-19 12:57:00,,0837.0,5.01,0.00,27.7,26.1,00.0,36.0,29.3,25.3,0003.7,0088.24,0112.76,0085.34
2023-05-19 12:58:00,,0837.1,5.00,0.00,27.7,26.1,00.0,36.0,29.3,25.1,0003.7,0088.24,0112.80,0085.37
2023-05-19 12:59:00,,0837.1,4.99,0.00,27.7,26.1,00.0,36.0,29.3,25.1,0003.7,0088.29,0112.63,0085.36
